{"data":{"norad_id":64016,"intl_designator":"2025-101Y","name":"STARLINK-34016","alt_names":[],"object_type":"PAYLOAD","status":"ACTIVE","operator":null,"country":"US","launch_date":"2025-05-14","launch_site_code":"AFETR","launch_vehicle":null,"mission":null,"orbit_class":"UNKNOWN","rcs_meters":null,"size_class":null,"mass_kg":null,"dimensions":null,"purposes":["comms"],"wikipedia_slug":null,"has_3d_model":false,"image_url":null,"decayed_at":null,"tle_current":{"epoch":"2026-05-25T02:19:00.535008Z","epoch_age_seconds":73513,"freshness":"FRESH","line1":"1 64016U 25101Y   26145.09653397  .00008595  00000+0  32132-3 0  9996","line2":"2 64016  43.0014 286.1911 0000569 328.4543  31.6275 15.27596668 58741","mean_motion":15.27596668,"eccentricity":5.69e-5,"inclination_deg":43.0014,"raan_deg":286.1911,"arg_perigee_deg":328.4543,"mean_anomaly_deg":31.6275,"bstar":0.00032132,"rev_number":5874,"period_min":94.26572014492,"perigee_km":482.60878785618,"apogee_km":483.3895851542,"semimajor_km":6861.1361865052,"source":"CELESTRAK","updated_at":"2026-05-25T13:38:20.222526Z"}}}